Tiempo cada hora Barsuki

Hoy, 1 Marzo, Lunes

Tiempo Temperatura Precipitaciones Viento Presión Humedad
00:00 +2°C° 0.6 mm 1 mps 717 mmHg 98%
01:00 +2°C° 0.7 mm 1 mps 717 mmHg 98%
02:00 +1°C° 0.7 mm 1 mps 717 mmHg 98%
03:00 +1°C° 0 mm 1 mps 718 mmHg 98%
04:00 +1°C° 0.5 mm 1 mps 718 mmHg 98%
05:00 +1°C° 0.5 mm 1 mps 718 mmHg 98%
06:00 +1°C° 0.5 mm 1 mps 719 mmHg 98%
07:00 +1°C° 0.4 mm 1 mps 719 mmHg 98%
08:00 +1°C° 0.4 mm 1 mps 720 mmHg 97%
09:00 +2°C° 0 mm 1 mps 720 mmHg 96%
10:00 +2°C° 0.1 mm 1 mps 720 mmHg 92%
11:00 +3°C° 0.1 mm 1 mps 720 mmHg 87%
12:00 +3°C° 0.1 mm 2 mps 721 mmHg 83%
13:00 +3°C° 0.1 mm 2 mps 720 mmHg 81%
14:00 +3°C° 0.1 mm 2 mps 720 mmHg 80%
15:00 +3°C° 0.1 mm 2 mps 720 mmHg 78%
16:00 +3°C° 0.1 mm 1 mps 721 mmHg 81%
17:00 +3°C° 0.1 mm 1 mps 721 mmHg 84%
18:00 +1°C° 0.1 mm 0 mps 721 mmHg 87%
19:00 +1°C° 0 mm 0 mps 722 mmHg 88%
20:00 0°C° 0 mm 0 mps 722 mmHg 89%
21:00 0°C° 0 mm 0 mps 723 mmHg 90%
22:00 0°C° 0 mm 0 mps 723 mmHg 90%
23:00 0°C° 0 mm 0 mps 723 mmHg 90%

Mañana, 2 Marzo, Martes

Tiempo Temperatura Precipitaciones Viento Presión Humedad
00:00 0°C° 0 mm 0 mps 723 mmHg 90%
01:00 0°C° 0 mm 0 mps 723 mmHg 89%
02:00 -1°C° 0 mm 0 mps 723 mmHg 88%
03:00 -1°C° 0 mm 0 mps 723 mmHg 87%
04:00 -1°C° 0 mm 0 mps 723 mmHg 86%
05:00 -1°C° 0 mm 0 mps 723 mmHg 85%
06:00 -1°C° 0 mm 0 mps 723 mmHg 84%
07:00 0°C° 0 mm 0 mps 723 mmHg 80%
08:00 +1°C° 0 mm 0 mps 723 mmHg 76%
09:00 +3°C° 0 mm 1 mps 724 mmHg 72%
10:00 +4°C° 0 mm 1 mps 723 mmHg 69%
11:00 +5°C° 0 mm 1 mps 723 mmHg 66%
12:00 +6°C° 0 mm 1 mps 722 mmHg 63%
13:00 +6°C° 0 mm 1 mps 722 mmHg 62%
14:00 +6°C° 0 mm 1 mps 722 mmHg 60%
15:00 +6°C° 0 mm 1 mps 721 mmHg 59%
16:00 +5°C° 0 mm 1 mps 721 mmHg 64%
17:00 +3°C° 0 mm 0 mps 721 mmHg 68%
18:00 +2°C° 0 mm 0 mps 721 mmHg 72%
19:00 +2°C° 0 mm 0 mps 721 mmHg 73%
20:00 +2°C° 0 mm 0 mps 721 mmHg 73%
21:00 +1°C° 0 mm 0 mps 721 mmHg 74%
22:00 +2°C° 0 mm 1 mps 721 mmHg 74%
23:00 +2°C° 0 mm 1 mps 720 mmHg 74%

Pasado mañana, 3 Marzo, Miércoles

Tiempo Temperatura Precipitaciones Viento Presión Humedad
00:00 +1°C° 0 mm 1 mps 720 mmHg 74%
01:00 +1°C° 0 mm 1 mps 720 mmHg 73%
02:00 +1°C° 0 mm 1 mps 719 mmHg 72%
03:00 +1°C° 0 mm 1 mps 719 mmHg 71%
04:00 +1°C° 0 mm 1 mps 718 mmHg 71%
05:00 +1°C° 0 mm 1 mps 718 mmHg 71%
06:00 +1°C° 0 mm 1 mps 718 mmHg 71%
07:00 +2°C° 0 mm 1 mps 718 mmHg 66%
08:00 +3°C° 0 mm 1 mps 718 mmHg 61%
09:00 +3°C° 0 mm 0 mps 717 mmHg 55%
10:00 +5°C° 0 mm 1 mps 717 mmHg 55%
11:00 +5°C° 0 mm 2 mps 717 mmHg 54%
12:00 +6°C° 0 mm 2 mps 717 mmHg 54%
13:00 +6°C° 0 mm 2 mps 717 mmHg 52%
14:00 +7°C° 0 mm 1 mps 717 mmHg 51%
15:00 +7°C° 0 mm 1 mps 716 mmHg 50%
16:00 +5°C° 0.1 mm 2 mps 717 mmHg 63%
17:00 +1°C° 0.1 mm 4 mps 717 mmHg 75%
18:00 0°C° 0.1 mm 5 mps 718 mmHg 87%
19:00 0°C° 0.6 mm 4 mps 719 mmHg 88%
20:00 0°C° 0.6 mm 3 mps 719 mmHg 88%
21:00 0°C° 0.6 mm 3 mps 720 mmHg 88%
22:00 +1°C° 0.5 mm 2 mps 720 mmHg 89%
23:00 -1°C° 0.5 mm 2 mps 721 mmHg 91%

4 Marzo, Jueves

Tiempo Temperatura Precipitaciones Viento Presión Humedad
00:00 -1°C° 0.5 mm 2 mps 721 mmHg 92%
01:00 -1°C° 0.3 mm 2 mps 721 mmHg 93%
02:00 -1°C° 0.3 mm 2 mps 722 mmHg 93%
03:00 -2°C° 0.3 mm 2 mps 722 mmHg 93%
04:00 -2°C° 0.1 mm 2 mps 722 mmHg 92%
05:00 -2°C° 0.1 mm 2 mps 722 mmHg 92%
06:00 -3°C° 0.1 mm 2 mps 723 mmHg 91%
07:00 0°C° 0 mm 1 mps 723 mmHg 83%
08:00 +1°C° 0 mm 1 mps 723 mmHg 75%
09:00 +2°C° 0 mm 1 mps 723 mmHg 68%
10:00 +3°C° 0 mm 1 mps 723 mmHg 64%
11:00 +4°C° 0 mm 1 mps 722 mmHg 61%
12:00 +5°C° 0 mm 1 mps 722 mmHg 58%
13:00 +4°C° 0 mm 2 mps 721 mmHg 57%
14:00 +5°C° 0 mm 2 mps 721 mmHg 56%
15:00 +5°C° 0 mm 2 mps 721 mmHg 54%
16:00 +4°C° 0 mm 2 mps 721 mmHg 58%
17:00 +3°C° 0 mm 2 mps 721 mmHg 61%
18:00 +3°C° 0 mm 2 mps 721 mmHg 65%
19:00 +2°C° 0 mm 2 mps 721 mmHg 65%
20:00 +1°C° 0 mm 2 mps 721 mmHg 66%
21:00 +1°C° 0 mm 2 mps 721 mmHg 67%
22:00 -1°C° 0 mm 2 mps 720 mmHg 67%
23:00 +1°C° 0 mm 1 mps 720 mmHg 67%

5 Marzo, Viernes

Tiempo Temperatura Precipitaciones Viento Presión Humedad
00:00 +1°C° 0 mm 1 mps 720 mmHg 67%
01:00 +1°C° 0 mm 1 mps 719 mmHg 67%
02:00 +1°C° 0 mm 1 mps 719 mmHg 67%
03:00 0°C° 0 mm 0 mps 719 mmHg 67%
04:00 0°C° 0 mm 0 mps 718 mmHg 67%
05:00 +1°C° 0 mm 1 mps 718 mmHg 66%
06:00 +1°C° 0 mm 1 mps 718 mmHg 66%
07:00 +1°C° 0 mm 0 mps 718 mmHg 61%
08:00 +2°C° 0 mm 0 mps 718 mmHg 57%
09:00 +4°C° 0 mm 0 mps 718 mmHg 52%
10:00 +6°C° 0 mm 1 mps 718 mmHg 49%
11:00 +7°C° 0 mm 1 mps 718 mmHg 46%
12:00 +7°C° 0 mm 2 mps 717 mmHg 43%
13:00 +7°C° 0 mm 2 mps 717 mmHg 43%
14:00 +8°C° 0 mm 2 mps 717 mmHg 42%
15:00 +8°C° 0 mm 2 mps 717 mmHg 42%
16:00 +7°C° 0 mm 2 mps 717 mmHg 47%
17:00 +6°C° 0 mm 2 mps 717 mmHg 52%
18:00 +6°C° 0 mm 1 mps 717 mmHg 57%
19:00 +5°C° 0 mm 1 mps 718 mmHg 59%
20:00 +4°C° 0 mm 1 mps 718 mmHg 60%
21:00 +4°C° 0 mm 1 mps 718 mmHg 62%
22:00 +4°C° 0 mm 1 mps 718 mmHg 62%
23:00 +3°C° 0 mm 1 mps 718 mmHg 62%

6 Marzo, Sábado

Tiempo Temperatura Precipitaciones Viento Presión Humedad
00:00 +3°C° 0 mm 1 mps 718 mmHg 62%
01:00 +3°C° 0 mm 1 mps 718 mmHg 61%
02:00 +3°C° 0 mm 1 mps 718 mmHg 59%
03:00 +3°C° 0 mm 1 mps 718 mmHg 58%
04:00 +3°C° 0 mm 1 mps 718 mmHg 57%
05:00 +3°C° 0 mm 1 mps 718 mmHg 55%
06:00 +3°C° 0 mm 1 mps 718 mmHg 53%
07:00 +5°C° 0 mm 1 mps 718 mmHg 48%
08:00 +7°C° 0 mm 1 mps 718 mmHg 44%
09:00 +8°C° 0 mm 0 mps 718 mmHg 40%
10:00 +10°C° 0 mm 1 mps 717 mmHg 36%
11:00 +12°C° 0 mm 1 mps 717 mmHg 33%
12:00 +13°C° 0 mm 1 mps 717 mmHg 30%
13:00 +14°C° 0 mm 1 mps 716 mmHg 30%
14:00 +14°C° 0 mm 1 mps 716 mmHg 29%
15:00 +15°C° 0 mm 2 mps 716 mmHg 29%
16:00 +13°C° 0 mm 2 mps 716 mmHg 35%
17:00 +10°C° 0 mm 2 mps 716 mmHg 41%
18:00 +8°C° 0 mm 2 mps 716 mmHg 47%
19:00 +8°C° 0 mm 2 mps 716 mmHg 49%
20:00 +7°C° 0 mm 2 mps 716 mmHg 50%
21:00 +8°C° 0 mm 1 mps 716 mmHg 51%
22:00 +7°C° 0 mm 1 mps 716 mmHg 51%
23:00 +7°C° 0 mm 1 mps 715 mmHg 52%
Mostrar más

Necesitamos Su Consentimiento

Meteoprog y nuestros Proveedores de Servicios pueden almacenar y acceder a sus datos personales como cookies, identificadores de dispositivo u otras tecnologías similares de su dispositivo y procesar dichos datos para personalizar contenido y anuncios, además de ofrecer funciones de redes sociales y analizar el tráfico.

  • Almacenar y/o acceder a información en su dispositivo

    Se puede almacenar o acceder a cookies, identificadores de dispositivo u otra información de su dispositivo para los fines anteriormente indicados.

  • Anuncios y contenido personalizados, medición de anuncios y contenido, percepciones del público, y desarrollo de productos

    Los anuncios y el contenido pueden personalizarse en base a su perfil. Se pueden añadir más datos para personalizar mejor los anuncios y contenidos. Se puede medir el rendimiento de los anuncios y contenidos. Se puede obtener la percepción sobre el público que ha visto los anuncios y contenidos. Dichos datos pueden usarse para desarrollar o mejorar la experiencia del usuario, sistemas y software.

Al hacer clic en ‘Estoy De Acuerdo’ usted permitirá el uso de las cookies, identificadores de dispositivo, balizas web u otras tecnologías similares indicadas. Su configuración puede cambiarse desde el navegador de su dispositivo.

Para ciertos fines, los intereses legítimos pueden ser considerados por encima del consentimiento. Puede leer más sobre ello en nuestra Política de Privacidad y Cookies.